Regional Weather Roundup
Issued by NWS Wakefield, VA

Home | Current Version | Previous Version | Text Only | Print | Product List | Glossary Off
Versions: 1 2 3 4 5 6 7 8 9 10 11 12 13 14 15 16 17 18 19 20 21 22 23 24 25 26 27 28 29 30 31 32 33 34 35 36 37 38 39 40 41 42 43 44 45 46 47 48 49 50

000
ASUS41 KAKQ 061715
RWRAKQ

REGIONAL WEATHER ROUNDUP
NATIONAL WEATHER SERVICE WAKEFIELD VA
100 PM EDT MON JUL 06 2015

Note: "fair" indicates few or no clouds below 12,000 feet with no
significant weather and/or obstructions to visibility. * = Denotes
station may not report precipitation (e.g., rain,snow,etc.),
thunder or fog.

VAZ042-051-052>054-056-061800-
NORTHERN VIRGINIA

CITY           SKY/WX    TMP DP  RH WIND       PRES   REMARKS
WASH NATIONAL  PTSUNNY   86  74  67 S10       30.10F
DULLES         PTSUNNY   81  71  71 S9        30.10F
FORT BELVOIR   PTSUNNY   82  73  72 SE6       30.10F
QUANTICO       PTSUNNY   82  73  74 S10       30.10F
FREDERICKSBRG* PTSUNNY   85  73  65 S5        30.08F
STAFFORD*      PTSUNNY   82  71  70 S6        30.13F
WARRENTON      PTSUNNY   82  74  77 SE5       30.10F
CULPEPER*      CLOUDY    80  71  75 S3        30.10F
MANASSAS*      PTSUNNY   81  73  78 S6        30.11F
LEESBURG*      PTSUNNY   81  73  78 S15       30.11F
WINCHESTER     PTSUNNY   82  70  65 SE9G17    30.09F
FRONT ROYAL*   FAIR      79  70  73 S9        30.08F
LURAY*         FAIR      82  70  65 SE5       30.09F
$$

VAZ048-049-060>072-079>083-061800-
CENTRAL AND SOUTH CENTRAL VIRGINIA

CITY           SKY/WX    TMP DP  RH WIND       PRES   REMARKS
RICHMOND       CLOUDY    85  73  67 S10       30.11F
CHESTERFIELD*  NOT AVBL
PETERSBURG*    PTSUNNY   83  76  79 S7        30.12S
HANOVER        PTSUNNY   83  72  69 S9        30.12F
TAPPAHANNOCK*  PTSUNNY   85  69  57 SE6       30.12S
QUINTON*       PTSUNNY   83  73  72 S6        30.11S
CHARLOTTSVILLE PTSUNNY   79  70  74 S9        30.10F
GORDONSVILLE*  CLOUDY    77  72  83 S3        30.09F
ORANGE*        CLOUDY    81  72  74 SE7       30.11F
LOUISA*        PTSUNNY   81  72  74 S5        30.10F
BUMPASS*       CLOUDY    81  72  76 SE6       30.10F
FARMVILLE*     PTSUNNY   82  69  64 S7        30.08F
CREWE*         CLOUDY    81  70  69 S7        30.10F
FORT PICKETT*  PTSUNNY   81  71  70 S10G16    30.11F
CHASE CITY*    PTSUNNY   84  74  70 SW3       30.11F
CLARKSVILLE*   PTSUNNY   81  70  69 SW8       30.10F
SOUTH HILL*    CLOUDY    82  72  71 CALM      30.17S
LAWRENCEVILLE* NOT AVBL
EMPORIA*         N/A     82  72  69 S5        30.13F
$$

VAZ088>098-061800-
SOUTHEAST VIRGINIA

CITY           SKY/WX    TMP DP  RH WIND       PRES   REMARKS
NORFOLK        MOSUNNY   85  70  60 S10       30.11F
VIRGINIA BEACH PTSUNNY   90  72  55 SW9       30.11F HX  97
NORFOLK NAVAL  RAIN      78  71  79 VRB6G24   30.12F
WEST POINT*    PTSUNNY   88  71  57 S7        30.13S
SALUDA*        PTSUNNY   83  74  72 SW6       30.11S
NEWPORT NEWS   PTSUNNY   85  73  67 SW10      30.12S
LANGLEY AFB    PTSUNNY   86  73  66 SW9       30.10S
FORT EUSTIS    PTSUNNY   85  83  94 SW8       30.10F HX 103
WILLIAMSBURG*  PTSUNNY   90  73  58 S7        30.13S HX  98
HR EXEC AP*    PTSUNNY   86  73  66 SW6       30.13F
FRANKLIN*      MOSUNNY   84  72  67 S10G16    30.12F
WAKEFIELD      PTSUNNY   85  73  67 S7        30.12S
$$

VAZ020-022-025-037-045-061800-
WEST CENTRAL AND SOUTHWEST VIRGINIA

CITY           SKY/WX    TMP DP  RH WIND       PRES   REMARKS
STAUNTON*      CLOUDY    81  68  65 S10G16    30.12F
WAYNESBORO*    CLOUDY    75  67  76 SE8       30.12F
HOT SPRINGS VA RAIN      65  65 100 S5        30.21S
LYNCHBURG      CLOUDY    74  71  91 S8        30.12S
DANVILLE       LGT RAIN  75  71  87 VRB5      30.11F FOG
SOUTH BOSTON*  PTSUNNY   81  70  69 MISG      30.10F
MARTINSVILLE   MOSUNNY   77  77  99 SW3       30.15F
ROANOKE        CLOUDY    77  69  76 VRB3      30.13S
BLACKSBURG     DRIZZLE   70  69  96 W6        30.20S
DUBLIN*        PTSUNNY   75  71  86 CALM      30.18F
MARION*        PTSUNNY   75  64  70 W12       30.22S
HILLSVILLE*    PTSUNNY   73  62  68 W8        30.19S
RICHLANDS*     PTSUNNY   70  64  79 SW7       30.20F
WISE*          CLOUDY    68  61  77 SW7       30.23S
ABINGDON*      CLOUDY    74  65  72 W8        30.20S
$$

MDZ021>025-VAZ099-100-061800-
SOUTHERN MARYLAND AND THE DELMARVA PENINSULA

CITY           SKY/WX    TMP DP  RH WIND       PRES   REMARKS
PATUXENT RIVER CLOUDY    83  75  77 SE13      30.11S
BAY BRIDGE APT   N/A     82  68  61 SE10      30.12S
LEONARDTOWN    PTSUNNY   82  70  65 SE7       30.13S
DOVER          PTSUNNY   83  76  78 E9        30.11F
GEORGETOWN     PTSUNNY   85  71  63 S7        30.13F
EASTON         PTSUNNY   84  73  70 SW12      30.16S
CAMBRIDGE      PTSUNNY   84  70  61 S5        30.12S
SALISBURY      PTSUNNY   84  72  67 SE8       30.12F
OCEAN CITY     CLOUDY    81  70  69 VRB3      30.13F
WALLOPS ISLAND CLOUDY    81  75  82 SE10      30.13F
ACCOMACK*      PTSUNNY   84  77  79 S5        30.12S
$$

NCZ012>017-030>032-061800-
NORTH CENTRAL AND EASTERN NORTH CAROLINA

CITY           SKY/WX    TMP DP  RH WIND       PRES   REMARKS
ROANOKE RAPIDS PTSUNNY   82  72  69 S6        30.12S
RALEIGH        MOSUNNY   85  70  60 SW12G18   30.12F
ELIZABETH CITY MOSUNNY   86  74  67 S12       30.13F
AHOSKIE*       SUNNY    N/A N/A N/A S3        30.11F
EDENTON*         N/A     87  74  65 S9        30.13F
CURRITUCK*     MOSUNNY   86  72  62 S5        30.14S
KILL DEVIL HLS MOSUNNY   82  76  82 CALM      30.14F
MANTEO         MOSUNNY   81  74  81 S9        30.16F
CAPE HATTERAS  MOSUNNY   83  74  74 SW9       30.17F
TARBORO*         N/A     89  70  54 SE3       30.12F
GOLDSBORO      MOSUNNY   88  70  55 SW6       30.10F
WASHINGTON     SUNNY     87  72  61 SW7       30.12F
GREENVILLE     SUNNY     88  70  55 SW14      30.13F
NEW BERN       MOSUNNY   82  75  79 SW6       30.15F
WILMINGTON     MOSUNNY   89  68  49 S10G18    30.13F
$$

VAZ048-061800-
ELSEWHERE

CITY           SKY/WX    TMP DP  RH WIND       PRES   REMARKS
HARRISBURG PA  PTSUNNY   82  69  64 SE8       30.11F
BALTIMORE      PTSUNNY   81  71  71 SE3       30.10F
ANNAPOLIS      PTSUNNY   80  71  74 SE15      30.11S
ANDREWS AFB    PTSUNNY   83  80  91 S8        30.10F HX  96
PHILADELPHIA   CLOUDY    82  71  69 SE8       30.13F
HENDERSON NC   PTSUNNY   83  67  58 SW16      30.12S
GREENSBORO     CLOUDY    84  64  50 W15       30.11F
ROCKY MOUNT    PTSUNNY   88  71  57 S8        30.11F
$$

VAZ100-061800-
MARINE

STATION/POSITION TIME  TEMP    WIND        PRES    WAVE   SWELL
                       AIR SEA DIR/SP/G            HT/PER HT/PER
                 (UTC) (F)     (DEG/KT/KT) (MB)    (FT/S) (FT/S)
BRANDYWINE LGT   1600   74 74  140/ 12/ 13 1020.8F
CAPE MAY NJ      1600   78 78  140/  7/ 11 1020.4F
LEWES DE         1600   81 74  150/  7/  9 1020.3F
15NM E FENWICK I 1650   76 75              1020.2F   2/13
OCEAN-CITY-INLET 1600   78 75  190/  5/  7 1020.5F
WACHAPREAGUE VA  1600   79 81  150/  5/  6 1020.3F
THOMAS POINT MD  1600   78     160/ 12       N/A
GOOSES REEF MD   1700   80 80  160/ 10/ 14 1020.7F
COVE POINT MD    1600   78     180/ 11/ 12 1020.6F
SOLOMONS ISLAND  1600      80                N/A
BISHOPS HEAD MD  1600   79     140/  8/ 10 1019.9F
PINEY POINT MD   1600          200/  4/  5   N/A
CAMBRIDGE MD     1600   82 79  180/  7/  9 1019.8F
LEWISETTA VA     1600   81 81  270/  6/  7 1019.4F
RAPPAHANNOCK LGT 1600          190/  9/ 10 1020.6F
STINGRAY PT      1700   80 81  160/ 10/ 12 1020.0S   1/ 2
YORK RVR RNG VA  1600   81     220/  8/ 10 1019.4F
YORKTOWN VA      1600   82 80  210/  7/ 10 1019.6F
JAMESTOWN VA     1700   83 83  200/  6/ 10   N/A
DOMINION TERM VA 1600   82     240/  5/  6 1019.8F
KIPTOPEKE VA     1600      83  190/  6/  7   N/A
CHES BAY BRIDGE  1600   83 76  180/  5/  6 1019.6F
CAPE HENRY VA    1600   82     130/ 11/ 14   N/A
CHESAPEAKE LGHT  1600   78     170/ 12/ 13 1021.0F
WILLOUBY STN VA  1600   83     200/  8/  8 1020.9F
CAPE HENRY BUOY  1628      79                N/A     2/13
1ST LANDING BUOY 1700      79              1019.3F   1/ 3
CAPE CHARLES BUO 1626      78                N/A     2/13   2/13
OFFSHORE WE BUOY 1611      78                N/A     2/ 9   2/ 9
64NM E OF VA BCH 1650   78 77  200/ 10/ 12 1020.6F   3/ 9   2/ 9
DUCK PIER NC     1600   76 78  160/  9/ 12   N/A
44100 DUCK FRF   1624      79                N/A     2/13   2/13
44056 DUCK FRF   1611      77                N/A     2/13   2/13
OREGON INLET NC  1600   76 82  190/ 15/ 21 1021.9R
HATTERAS NC      1600   83 80  180/  5/  9 1022.0R
DIAMOND SHLS NC  1650   80 82  190/ 12/ 14 1021.5F   3/13   2/13
CAPE LOOKOUT NC  1700   80     180/  9/ 10 1021.2F
$$



USA.gov is the U.S. government's official web portal to all federal, state and local government web resources and services.